Location: ????
(30.1475°N, 31.1342°E)
Time: 11:07:22
(UTC+00:00)

Cosmos 1140 Rocket - Pass Details

Date: 27 September 2022
Orbit: 743 x 767 km, 74.1° (Epoch: 26 November)

Event Time Altitude Azimuth Distance (km) Brightness Sun altitude
Rises 03:01:21 0° 327° (NNW) 3,211 6.4 -10.6°
Reaches altitude 10° 03:04:08 10° 313° (NW) 2,287 5.6 -10.0°
Maximum altitude 03:08:10 23° 262° (W) 1,560 4.5 -9.1°
Drops below altitude 10° 03:12:13 10° 210° (SSW) 2,288 5.7 -8.2°
Sets 03:15:00 0° 196° (SSW) 3,213 6.5 -7.6°
